Starlink 32938

operational
NORAD ID: 63201 Int'l Des: 2025-048 Owner: SPXS Country: US Constellation: starlink
LEOCIRCULAR

Starlink 32938について

説明を読み込み中...

リアルタイム位置

3D地球を読み込み中...

次回通過

高度履歴

Altitude vs Time

uPlot chart will show altitude changes over time

軌道要素

1 63201U 25048U 26095.24846524 .00030587 00000-0 11173-2 0 9996
2 63201 42.9998 295.3551 0001023 262.9113 97.1622 15.27554631 61154
Epoch: Apr 5, 2026 • Age: 12 hours

現在のステータス

高度 495.2 km
速度 7.62 km/s
衛星直下点 -41.98°S, 112.13°E
打ち上げ日 Mar 13, 2025
運用期間 1 years
タイプ internet

技術仕様

分類 Payload
質量 730.00 kg
乾燥質量 700.00 kg
総質量 730.00 kg
長さ 0.30 m
直径 4.10 m
スパン 29.00 m
形状 Box + pan
製造者 SPXS
バスタイプ Starlink V2M
フェーズステータス In Orbit
所有者/国 SPXS/US

大規模コンステレーション

Loading constellations...